Time,TemperatureF,DewpointF,PressureIn,WindDirection,WindDirectionDegrees,WindSpeedMPH,WindSpeedGustMPH,Humidity,HourlyPrecipIn,Conditions,Clouds,dailyrainin,SoftwareType,DateUTC
2013-03-23 00:00:00,33.3,18.4,30.00,NNW,338,2.5,4.0,54,0.00,,,0.00,WUHU216HW,2013-03-23 04:00:00,
2013-03-23 00:05:00,33.5,18.1,30.00,NNE,23,1.1,4.0,53,0.00,,,0.00,WUHU216HW,2013-03-23 04:05:00,
2013-03-23 00:10:00,33.5,18.1,30.00,NNW,338,2.9,4.0,53,0.00,,,0.00,WUHU216HW,2013-03-23 04:10:00,
2013-03-23 00:15:00,33.5,18.1,30.00,NW,315,0.4,4.0,53,0.00,,,0.00,WUHU216HW,2013-03-23 04:15:00,
2013-03-23 00:20:00,33.5,18.1,30.00,NNW,338,1.8,2.9,53,0.00,,,0.00,WUHU216HW,2013-03-23 04:20:00,
2013-03-23 00:25:00,33.1,17.7,30.00,NE,45,2.5,2.5,53,0.00,,,0.00,WUHU216HW,2013-03-23 04:25:00,
2013-03-23 00:30:00,33.1,17.7,30.00,North,0,2.2,2.9,53,0.00,,,0.00,WUHU216HW,2013-03-23 04:30:00,
2013-03-23 00:35:00,32.9,17.6,30.00,NW,315,1.8,2.9,53,0.00,,,0.00,WUHU216HW,2013-03-23 04:35:00,
2013-03-23 00:40:00,33.1,17.7,30.00,NE,45,0.4,2.5,53,0.00,,,0.00,WUHU216HW,2013-03-23 04:40:00,
2013-03-23 00:45:00,33.1,17.7,30.00,NE,45,0.2,2.0,53,0.00,,,0.00,WUHU216HW,2013-03-23 04:45:00,
2013-03-23 00:50:00,33.1,18.6,30.00,NE,45,2.7,2.7,55,0.00,,,0.00,WUHU216HW,2013-03-23 04:50:00,
2013-03-23 00:55:00,32.4,18.4,30.00,SE,135,3.8,3.8,56,0.00,,,0.00,WUHU216HW,2013-03-23 04:55:00,
2013-03-23 01:00:00,31.7,18.5,29.99,ESE,113,1.1,3.8,58,0.00,,,0.00,WUHU216HW,2013-03-23 05:00:00,
2013-03-23 01:05:00,31.0,18.3,29.99,ESE,113,1.8,3.8,59,0.00,,,0.00,WUHU216HW,2013-03-23 05:05:00,
2013-03-23 01:10:00,30.6,18.7,29.99,ESE,113,1.1,1.8,61,0.00,,,0.00,WUHU216HW,2013-03-23 05:10:00,
2013-03-23 01:15:00,30.4,18.2,30.00,SE,135,0.4,1.8,60,0.00,,,0.00,WUHU216HW,2013-03-23 05:15:00,
2013-03-23 01:20:00,30.1,17.5,30.00,East,90,0.0,1.3,59,0.00,,,0.00,WUHU216HW,2013-03-23 05:20:00,
2013-03-23 01:25:00,29.7,17.6,30.00,SE,135,0.0,1.1,60,0.00,,,0.00,WUHU216HW,2013-03-23 05:25:00,
2013-03-23 01:30:00,29.3,16.7,30.00,NNW,338,0.4,1.1,59,0.00,,,0.00,WUHU216HW,2013-03-23 05:30:00,
2013-03-23 01:35:00,29.2,17.0,30.00,NE,45,1.1,1.3,60,0.00,,,0.00,WUHU216HW,2013-03-23 05:35:00,
2013-03-23 01:40:00,28.3,16.2,29.99,North,0,0.4,1.3,60,0.00,,,0.00,WUHU216HW,2013-03-23 05:40:00,
2013-03-23 01:45:00,28.1,16.7,29.99,SE,135,0.4,1.3,62,0.00,,,0.00,WUHU216HW,2013-03-23 05:45:00,
2013-03-23 01:50:00,28.1,16.7,29.99,West,270,0.4,0.7,62,0.00,,,0.00,WUHU216HW,2013-03-23 05:50:00,
2013-03-23 01:55:00,28.1,18.2,29.99,SSW,203,0.7,1.1,66,0.00,,,0.00,WUHU216HW,2013-03-23 05:55:00,
2013-03-23 02:00:00,28.3,19.4,29.99,West,270,1.1,1.3,69,0.00,,,0.00,WUHU216HW,2013-03-23 06:00:00,
2013-03-23 02:05:00,28.4,18.9,29.99,SSE,158,0.0,1.3,67,0.00,,,0.00,WUHU216HW,2013-03-23 06:05:00,
2013-03-23 02:10:00,28.3,17.6,29.99,WSW,248,0.4,1.1,64,0.00,,,0.00,WUHU216HW,2013-03-23 06:10:00,
2013-03-23 02:15:00,27.9,17.3,29.99,ENE,68,0.0,0.7,64,0.00,,,0.00,WUHU216HW,2013-03-23 06:15:00,
2013-03-23 02:20:00,27.7,16.7,29.99,ENE,68,0.0,0.7,63,0.00,,,0.00,WUHU216HW,2013-03-23 06:20:00,
2013-03-23 02:25:00,27.2,16.2,30.00,NNE,23,0.0,0.9,63,0.00,,,0.00,WUHU216HW,2013-03-23 06:25:00,
2013-03-23 02:30:00,26.6,17.8,30.00,ENE,68,0.0,0.9,69,0.00,,,0.00,WUHU216HW,2013-03-23 06:30:00,
2013-03-23 02:35:00,26.3,16.4,30.00,ENE,68,0.0,0.4,66,0.00,,,0.00,WUHU216HW,2013-03-23 06:35:00,
2013-03-23 02:40:00,26.3,16.4,30.00,NNW,338,0.0,0.4,66,0.00,,,0.00,WUHU216HW,2013-03-23 06:40:00,
2013-03-23 02:45:00,26.3,16.7,30.00,NNE,23,0.0,0.7,67,0.00,,,0.00,WUHU216HW,2013-03-23 06:45:00,
2013-03-23 02:50:00,26.1,17.3,30.00,ENE,68,0.0,0.7,69,0.00,,,0.00,WUHU216HW,2013-03-23 06:50:00,
2013-03-23 02:55:00,25.9,16.4,30.00,ENE,68,0.0,0.4,67,0.00,,,0.00,WUHU216HW,2013-03-23 06:55:00,
2013-03-23 03:00:00,25.9,16.7,30.00,ENE,68,0.0,0.7,68,0.00,,,0.00,WUHU216HW,2013-03-23 07:00:00,
2013-03-23 03:05:00,25.9,16.4,30.00,ENE,68,0.0,0.7,67,0.00,,,0.00,WUHU216HW,2013-03-23 07:05:00,
2013-03-23 03:10:00,25.6,15.7,29.99,ENE,68,0.0,0.2,66,0.00,,,0.00,WUHU216HW,2013-03-23 07:10:00,
2013-03-23 03:15:00,25.6,16.0,29.99,ENE,68,0.0,0.2,67,0.00,,,0.00,WUHU216HW,2013-03-23 07:15:00,
2013-03-23 03:20:00,24.8,15.0,29.99,NE,45,0.0,1.1,66,0.00,,,0.00,WUHU216HW,2013-03-23 07:20:00,
2013-03-23 03:25:00,24.7,15.2,29.99,NE,45,0.0,1.1,67,0.00,,,0.00,WUHU216HW,2013-03-23 07:25:00,
2013-03-23 03:30:00,24.7,15.6,29.99,NE,45,0.0,0.0,68,0.00,,,0.00,WUHU216HW,2013-03-23 07:30:00,
2013-03-23 03:35:00,24.7,15.6,29.99,NE,45,0.4,0.4,68,0.00,,,0.00,WUHU216HW,2013-03-23 07:35:00,
2013-03-23 03:40:00,24.7,15.6,29.99,ENE,68,0.0,0.4,68,0.00,,,0.00,WUHU216HW,2013-03-23 07:40:00,
2013-03-23 03:45:00,24.7,15.6,29.99,NE,45,0.4,0.4,68,0.00,,,0.00,WUHU216HW,2013-03-23 07:45:00,
2013-03-23 03:50:00,24.8,15.7,29.99,NE,45,0.0,0.4,68,0.00,,,0.00,WUHU216HW,2013-03-23 07:50:00,
2013-03-23 03:55:00,24.8,15.4,29.99,NE,45,0.0,0.4,67,0.00,,,0.00,WUHU216HW,2013-03-23 07:55:00,
2013-03-23 04:00:00,24.5,15.4,29.99,NE,45,0.0,0.4,68,0.00,,,0.00,WUHU216HW,2013-03-23 08:00:00,
2013-03-23 04:05:00,24.3,15.6,29.99,SSW,203,0.0,0.4,69,0.00,,,0.00,WUHU216HW,2013-03-23 08:05:00,
2013-03-23 04:10:00,24.5,16.0,29.99,ESE,113,0.0,0.7,70,0.00,,,0.00,WUHU216HW,2013-03-23 08:10:00,
2013-03-23 04:15:00,24.5,17.6,29.99,SSW,203,0.4,0.7,75,0.00,,,0.00,WUHU216HW,2013-03-23 08:15:00,
2013-03-23 04:20:00,24.8,19.3,29.99,West,270,0.7,1.6,79,0.00,,,0.00,WUHU216HW,2013-03-23 08:20:00,
2013-03-23 04:25:00,25.0,18.8,29.99,West,270,0.9,1.6,77,0.00,,,0.00,WUHU216HW,2013-03-23 08:25:00,
2013-03-23 04:30:00,25.2,18.6,29.99,SW,225,0.0,1.1,76,0.00,,,0.00,WUHU216HW,2013-03-23 08:30:00,
2013-03-23 04:35:00,25.0,17.2,29.99,WSW,248,0.0,0.9,72,0.00,,,0.00,WUHU216HW,2013-03-23 08:35:00,
2013-03-23 04:40:00,24.7,16.6,29.99,NE,45,0.0,0.4,71,0.00,,,0.00,WUHU216HW,2013-03-23 08:40:00,
2013-03-23 04:45:00,24.1,16.0,29.99,NE,45,0.2,0.4,71,0.00,,,0.00,WUHU216HW,2013-03-23 08:45:00,
2013-03-23 04:50:00,23.8,16.7,29.99,NE,45,0.0,0.4,74,0.00,,,0.00,WUHU216HW,2013-03-23 08:50:00,
2013-03-23 04:55:00,23.4,16.0,29.98,NE,45,0.0,0.4,73,0.00,,,0.00,WUHU216HW,2013-03-23 08:55:00,
2013-03-23 05:00:00,23.4,16.0,29.99,NW,315,0.0,0.4,73,0.00,,,0.00,WUHU216HW,2013-03-23 09:00:00,
2013-03-23 05:05:00,23.4,16.0,29.98,NNE,23,0.0,0.4,73,0.00,,,0.00,WUHU216HW,2013-03-23 09:05:00,
2013-03-23 05:10:00,23.0,15.4,29.98,NE,45,0.4,0.7,72,0.00,,,0.00,WUHU216HW,2013-03-23 09:10:00,
2013-03-23 05:15:00,22.7,15.3,29.98,ENE,68,0.2,1.1,73,0.00,,,0.00,WUHU216HW,2013-03-23 09:15:00,
2013-03-23 05:20:00,22.7,15.0,29.98,ENE,68,0.0,1.1,72,0.00,,,0.00,WUHU216HW,2013-03-23 09:20:00,
2013-03-23 05:25:00,22.7,15.3,29.98,NE,45,0.4,1.8,73,0.00,,,0.00,WUHU216HW,2013-03-23 09:25:00,
2013-03-23 05:30:00,22.3,14.7,29.98,NW,315,0.4,1.8,72,0.00,,,0.00,WUHU216HW,2013-03-23 09:30:00,
2013-03-23 05:35:00,22.3,14.9,29.99,NNW,338,0.2,1.6,73,0.00,,,0.00,WUHU216HW,2013-03-23 09:35:00,
2013-03-23 05:40:00,22.5,16.4,29.99,SW,225,0.4,0.7,77,0.00,,,0.00,WUHU216HW,2013-03-23 09:40:00,
2013-03-23 05:45:00,22.7,15.9,29.99,SE,135,0.0,0.7,75,0.00,,,0.00,WUHU216HW,2013-03-23 09:45:00,
2013-03-23 05:50:00,22.7,16.6,29.99,SE,135,0.0,0.4,77,0.00,,,0.00,WUHU216HW,2013-03-23 09:50:00,
2013-03-23 05:55:00,22.7,15.9,29.99,SSE,158,0.0,0.4,75,0.00,,,0.00,WUHU216HW,2013-03-23 09:55:00,
2013-03-23 06:00:00,22.7,15.9,29.99,ESE,113,0.0,0.4,75,0.00,,,0.00,WUHU216HW,2013-03-23 10:00:00,
2013-03-23 06:05:00,22.5,15.1,29.99,North,0,0.0,0.4,73,0.00,,,0.00,WUHU216HW,2013-03-23 10:05:00,
2013-03-23 06:10:00,22.3,14.7,29.99,ENE,68,0.2,0.7,72,0.00,,,0.00,WUHU216HW,2013-03-23 10:10:00,
2013-03-23 06:15:00,21.8,15.0,29.99,NE,45,0.0,0.7,75,0.00,,,0.00,WUHU216HW,2013-03-23 10:15:00,
2013-03-23 06:20:00,21.8,15.7,30.00,WSW,248,0.0,0.7,77,0.00,,,0.00,WUHU216HW,2013-03-23 10:20:00,
2013-03-23 06:25:00,22.1,16.3,30.00,WSW,248,0.0,0.4,78,0.00,,,0.00,WUHU216HW,2013-03-23 10:25:00,
2013-03-23 06:30:00,22.5,17.3,30.01,SSW,203,0.2,0.7,80,0.00,,,0.00,WUHU216HW,2013-03-23 10:30:00,
2013-03-23 06:35:00,22.9,18.2,30.01,SW,225,0.2,0.9,82,0.00,,,0.00,WUHU216HW,2013-03-23 10:35:00,
2013-03-23 06:40:00,23.2,19.1,30.01,West,270,0.4,0.9,84,0.00,,,0.00,WUHU216HW,2013-03-23 10:40:00,
2013-03-23 06:45:00,23.4,19.0,30.01,West,270,0.4,0.7,83,0.00,,,0.00,WUHU216HW,2013-03-23 10:45:00,
2013-03-23 06:50:00,23.4,18.2,30.01,WSW,248,0.2,0.7,80,0.00,,,0.00,WUHU216HW,2013-03-23 10:50:00,
2013-03-23 06:55:00,23.4,18.7,30.01,SSW,203,0.0,0.4,82,0.00,,,0.00,WUHU216HW,2013-03-23 10:55:00,
2013-03-23 07:00:00,23.4,18.7,30.01,SSW,203,0.2,0.9,82,0.00,,,0.00,WUHU216HW,2013-03-23 11:00:00,
2013-03-23 07:05:00,23.4,18.7,30.01,WSW,248,0.4,0.9,82,0.00,,,0.00,WUHU216HW,2013-03-23 11:05:00,
2013-03-23 07:10:00,23.4,18.7,30.01,WSW,248,0.4,0.7,82,0.00,,,0.00,WUHU216HW,2013-03-23 11:10:00,
2013-03-23 07:15:00,23.2,18.0,30.01,West,270,0.4,0.7,80,0.00,,,0.00,WUHU216HW,2013-03-23 11:15:00,
2013-03-23 07:20:00,23.2,18.8,30.01,SW,225,0.0,0.7,83,0.00,,,0.00,WUHU216HW,2013-03-23 11:20:00,
2013-03-23 07:25:00,23.0,17.6,30.02,NE,45,0.4,0.7,79,0.00,,,0.00,WUHU216HW,2013-03-23 11:25:00,
2013-03-23 07:30:00,22.5,16.4,30.01,NE,45,0.7,0.9,77,0.00,,,0.00,WUHU216HW,2013-03-23 11:30:00,
2013-03-23 07:35:00,22.3,16.2,30.02,NE,45,0.0,0.9,77,0.00,,,0.00,WUHU216HW,2013-03-23 11:35:00,
2013-03-23 07:40:00,22.1,16.3,30.01,ENE,68,0.0,0.7,78,0.00,,,0.00,WUHU216HW,2013-03-23 11:40:00,
2013-03-23 07:45:00,22.3,17.1,30.01,ENE,68,0.0,0.2,80,0.00,,,0.00,WUHU216HW,2013-03-23 11:45:00,
2013-03-23 07:50:00,22.7,17.7,30.01,WSW,248,0.2,0.2,81,0.00,,,0.00,WUHU216HW,2013-03-23 11:50:00,
2013-03-23 07:55:00,23.4,18.7,30.02,SW,225,0.0,0.4,82,0.00,,,0.00,WUHU216HW,2013-03-23 11:55:00,
2013-03-23 08:00:00,24.1,19.7,30.02,WSW,248,0.4,0.4,83,0.00,,,0.00,WUHU216HW,2013-03-23 12:00:00,
2013-03-23 08:05:00,24.8,20.2,30.02,SSW,203,1.1,1.1,82,0.00,,,0.00,WUHU216HW,2013-03-23 12:05:00,
2013-03-23 08:10:00,25.4,20.7,30.02,SSW,203,1.8,1.8,82,0.00,,,0.00,WUHU216HW,2013-03-23 12:10:00,
2013-03-23 08:15:00,25.9,20.6,30.02,South,180,0.0,1.8,80,0.00,,,0.00,WUHU216HW,2013-03-23 12:15:00,
2013-03-23 08:20:00,26.6,21.0,30.02,South,180,0.4,1.8,79,0.00,,,0.00,WUHU216HW,2013-03-23 12:20:00,
2013-03-23 08:25:00,27.2,20.5,30.02,South,180,0.9,1.1,76,0.00,,,0.00,WUHU216HW,2013-03-23 12:25:00,
2013-03-23 08:30:00,27.9,20.7,30.02,South,180,1.3,1.3,74,0.00,,,0.00,WUHU216HW,2013-03-23 12:30:00,
2013-03-23 08:35:00,28.6,21.1,30.02,WSW,248,0.9,1.3,73,0.00,,,0.00,WUHU216HW,2013-03-23 12:35:00,
2013-03-23 08:40:00,29.2,21.2,30.02,West,270,0.9,1.3,72,0.00,,,0.00,WUHU216HW,2013-03-23 12:40:00,
2013-03-23 08:45:00,29.9,21.6,30.02,West,270,0.4,1.3,71,0.00,,,0.00,WUHU216HW,2013-03-23 12:45:00,
2013-03-23 08:50:00,30.6,21.2,30.02,West,270,2.0,3.4,68,0.00,,,0.00,WUHU216HW,2013-03-23 12:50:00,
2013-03-23 08:55:00,31.5,21.4,30.02,WSW,248,1.8,3.4,66,0.00,,,0.00,WUHU216HW,2013-03-23 12:55:00,
2013-03-23 09:00:00,32.4,22.3,30.02,West,270,2.5,2.9,66,0.00,,,0.00,WUHU216HW,2013-03-23 13:00:00,
2013-03-23 09:05:00,32.9,22.1,30.02,NW,315,2.7,3.4,64,0.00,,,0.00,WUHU216HW,2013-03-23 13:05:00,
2013-03-23 09:10:00,33.7,21.6,30.02,West,270,1.1,3.4,61,0.00,,,0.00,WUHU216HW,2013-03-23 13:10:00,
2013-03-23 09:15:00,34.4,21.5,30.02,West,270,2.5,2.7,59,0.00,,,0.00,WUHU216HW,2013-03-23 13:15:00,
2013-03-23 09:20:00,35.1,22.2,30.02,WNW,293,2.2,3.4,59,0.00,,,0.00,WUHU216HW,2013-03-23 13:20:00,
2013-03-23 09:25:00,35.8,22.5,30.02,SSW,203,1.1,3.4,58,0.00,,,0.00,WUHU216HW,2013-03-23 13:25:00,
2013-03-23 09:30:00,36.4,23.1,30.02,WSW,248,2.0,3.1,58,0.00,,,0.00,WUHU216HW,2013-03-23 13:30:00,
2013-03-23 09:35:00,37.1,22.8,30.02,SW,225,1.8,3.1,56,0.00,,,0.00,WUHU216HW,2013-03-23 13:35:00,
2013-03-23 09:40:00,37.8,22.1,30.02,WNW,293,2.7,4.0,53,0.00,,,0.00,WUHU216HW,2013-03-23 13:40:00,
2013-03-23 09:45:00,38.3,22.6,30.03,WSW,248,2.5,4.3,53,0.00,,,0.00,WUHU216HW,2013-03-23 13:45:00,
2013-03-23 09:50:00,38.7,21.7,30.02,SSW,203,3.4,4.7,50,0.00,,,0.00,WUHU216HW,2013-03-23 13:50:00,
2013-03-23 09:55:00,39.2,21.1,30.02,SSW,203,3.6,4.7,48,0.00,,,0.00,WUHU216HW,2013-03-23 13:55:00,
2013-03-23 10:00:00,39.6,22.0,30.02,West,270,2.5,5.1,49,0.00,,,0.00,WUHU216HW,2013-03-23 14:00:00,
2013-03-23 10:05:00,40.3,22.1,30.03,West,270,1.8,5.1,48,0.00,,,0.00,WUHU216HW,2013-03-23 14:05:00,
2013-03-23 10:10:00,40.7,21.9,30.03,West,270,10.3,10.3,47,0.00,,,0.00,WUHU216HW,2013-03-23 14:10:00,
2013-03-23 10:15:00,40.7,22.4,30.03,West,270,2.5,10.3,48,0.00,,,0.00,WUHU216HW,2013-03-23 14:15:00,
2013-03-23 10:20:00,41.4,22.1,30.03,WNW,293,5.4,10.3,46,0.00,,,0.00,WUHU216HW,2013-03-23 14:20:00,
2013-03-23 10:25:00,41.8,22.9,30.04,WNW,293,3.1,6.9,47,0.00,,,0.00,WUHU216HW,2013-03-23 14:25:00,
2013-03-23 10:30:00,41.6,21.2,30.04,WSW,248,4.7,11.4,44,0.00,,,0.00,WUHU216HW,2013-03-23 14:30:00,
2013-03-23 10:35:00,41.8,21.9,30.03,SSW,203,3.6,11.4,45,0.00,,,0.00,WUHU216HW,2013-03-23 14:35:00,
2013-03-23 10:40:00,42.3,22.3,30.03,WSW,248,3.6,7.4,45,0.00,,,0.00,WUHU216HW,2013-03-23 14:40:00,
2013-03-23 10:45:00,42.8,21.8,30.03,SW,225,6.7,7.4,43,0.00,,,0.00,WUHU216HW,2013-03-23 14:45:00,
2013-03-23 10:50:00,42.7,21.6,30.02,West,270,6.7,9.6,43,0.00,,,0.00,WUHU216HW,2013-03-23 14:50:00,
2013-03-23 10:55:00,42.8,21.8,30.02,SW,225,4.0,9.6,43,0.00,,,0.00,WUHU216HW,2013-03-23 14:55:00,
2013-03-23 11:00:00,43.0,20.9,30.02,WSW,248,5.1,8.7,41,0.00,,,0.00,WUHU216HW,2013-03-23 15:00:00,
2013-03-23 11:06:00,42.5,21.4,30.02,West,270,6.3,8.5,43,0.00,,,0.00,WUHU216HW,2013-03-23 15:06:00,
2013-03-23 11:11:00,43.2,21.6,30.02,West,270,0.7,9.8,42,0.00,,,0.00,WUHU216HW,2013-03-23 15:11:00,
2013-03-23 11:16:00,44.3,21.4,30.01,West,270,3.4,9.8,40,0.00,,,0.00,WUHU216HW,2013-03-23 15:16:00,
2013-03-23 11:21:00,45.0,21.4,30.01,NW,315,3.6,7.6,39,0.00,,,0.00,WUHU216HW,2013-03-23 15:21:00,
2013-03-23 11:26:00,45.4,21.1,30.01,NE,45,5.1,7.6,38,0.00,,,0.00,WUHU216HW,2013-03-23 15:26:00,
2013-03-23 11:31:00,45.7,20.8,30.01,West,270,5.1,6.9,37,0.00,,,0.00,WUHU216HW,2013-03-23 15:31:00,
2013-03-23 11:36:00,45.9,20.9,30.01,WNW,293,4.9,6.9,37,0.00,,,0.00,WUHU216HW,2013-03-23 15:36:00,
2013-03-23 11:41:00,45.7,20.1,30.00,WSW,248,8.3,8.5,36,0.00,,,0.00,WUHU216HW,2013-03-23 15:41:00,
2013-03-23 11:46:00,45.2,21.0,30.00,West,270,4.7,9.2,38,0.00,,,0.00,WUHU216HW,2013-03-23 15:46:00,
2013-03-23 11:51:00,45.5,20.6,30.00,WNW,293,5.8,9.2,37,0.00,,,0.00,WUHU216HW,2013-03-23 15:51:00,
2013-03-23 11:56:00,45.7,20.8,30.00,WSW,248,4.3,8.9,37,0.00,,,0.00,WUHU216HW,2013-03-23 15:56:00,
2013-03-23 12:01:00,46.3,21.2,29.99,WSW,248,1.8,8.7,37,0.00,,,0.00,WUHU216HW,2013-03-23 16:01:00,
2013-03-23 12:06:00,47.2,22.7,29.99,NW,315,2.7,6.0,38,0.00,,,0.00,WUHU216HW,2013-03-23 16:06:00,
2013-03-23 12:11:00,48.1,20.9,29.99,West,270,5.4,8.3,34,0.00,,,0.00,WUHU216HW,2013-03-23 16:11:00,
2013-03-23 12:16:00,46.8,19.1,29.99,WSW,248,12.1,12.1,33,0.00,,,0.00,WUHU216HW,2013-03-23 16:16:00,
2013-03-23 12:21:00,46.6,20.3,29.99,West,270,7.6,12.1,35,0.00,,,0.00,WUHU216HW,2013-03-23 16:21:00,
2013-03-23 12:26:00,47.2,21.4,29.99,West,270,4.0,12.1,36,0.00,,,0.00,WUHU216HW,2013-03-23 16:26:00,
2013-03-23 12:31:00,47.5,22.4,29.98,West,270,4.5,8.1,37,0.00,,,0.00,WUHU216HW,2013-03-23 16:31:00,
2013-03-23 12:36:00,48.2,22.3,29.98,West,270,4.3,8.1,36,0.00,,,0.00,WUHU216HW,2013-03-23 16:36:00,
2013-03-23 12:41:00,47.5,19.7,29.98,West,270,7.6,11.4,33,0.00,,,0.00,WUHU216HW,2013-03-23 16:41:00,
2013-03-23 12:46:00,47.7,19.9,29.98,WSW,248,4.0,11.4,33,0.00,,,0.00,WUHU216HW,2013-03-23 16:46:00,
2013-03-23 12:51:00,48.1,20.2,29.97,West,270,1.6,7.6,33,0.00,,,0.00,WUHU216HW,2013-03-23 16:51:00,
2013-03-23 12:57:00,48.4,19.8,29.97,WSW,248,5.4,9.2,32,0.00,,,0.00,WUHU216HW,2013-03-23 16:57:00,
2013-03-23 13:02:00,48.4,20.5,29.97,West,270,4.0,9.2,33,0.00,,,0.00,WUHU216HW,2013-03-23 17:02:00,
2013-03-23 13:07:00,48.6,19.4,29.97,West,270,10.3,10.3,31,0.00,,,0.00,WUHU216HW,2013-03-23 17:07:00,
2013-03-23 13:12:00,48.2,19.7,29.97,WSW,248,4.0,11.4,32,0.00,,,0.00,WUHU216HW,2013-03-23 17:12:00,
2013-03-23 13:17:00,49.0,20.3,29.97,West,270,1.6,15.0,32,0.00,,,0.00,WUHU216HW,2013-03-23 17:17:00,
2013-03-23 13:22:00,49.9,20.4,29.97,ENE,68,0.9,15.0,31,0.00,,,0.00,WUHU216HW,2013-03-23 17:22:00,
2013-03-23 13:27:00,50.8,21.8,29.97,West,270,6.9,9.4,32,0.00,,,0.00,WUHU216HW,2013-03-23 17:27:00,
2013-03-23 13:32:00,50.4,20.2,29.96,West,270,3.4,8.5,30,0.00,,,0.00,WUHU216HW,2013-03-23 17:32:00,
2013-03-23 13:37:00,50.4,20.2,29.96,West,270,4.7,8.5,30,0.00,,,0.00,WUHU216HW,2013-03-23 17:37:00,
2013-03-23 13:42:00,50.0,18.9,29.96,West,270,4.5,14.5,29,0.00,,,0.00,WUHU216HW,2013-03-23 17:42:00,
2013-03-23 13:47:00,50.2,20.6,29.96,WSW,248,2.5,14.5,31,0.00,,,0.00,WUHU216HW,2013-03-23 17:47:00,
2013-03-23 13:52:00,50.9,21.3,29.96,NW,315,3.6,12.1,31,0.00,,,0.00,WUHU216HW,2013-03-23 17:52:00,
2013-03-23 13:57:00,50.4,19.2,29.95,West,270,6.5,12.1,29,0.00,,,0.00,WUHU216HW,2013-03-23 17:57:00,
2013-03-23 14:02:00,50.8,20.4,29.94,ESE,113,2.5,12.1,30,0.00,,,0.00,WUHU216HW,2013-03-23 18:02:00,
2013-03-23 14:07:00,50.9,19.7,29.94,WNW,293,5.8,12.1,29,0.00,,,0.00,WUHU216HW,2013-03-23 18:07:00,
2013-03-23 14:12:00,50.8,19.5,29.95,WSW,248,1.3,13.4,29,0.00,,,0.00,WUHU216HW,2013-03-23 18:12:00,
2013-03-23 14:17:00,51.5,21.1,29.94,North,0,2.5,13.4,30,0.00,,,0.00,WUHU216HW,2013-03-23 18:17:00,
2013-03-23 14:22:00,52.2,20.8,29.94,West,270,5.4,9.6,29,0.00,,,0.00,WUHU216HW,2013-03-23 18:22:00,
2013-03-23 14:27:00,51.8,19.5,29.94,West,270,4.3,11.9,28,0.00,,,0.00,WUHU216HW,2013-03-23 18:27:00,
2013-03-23 14:32:00,51.7,20.4,29.94,West,270,6.3,11.9,29,0.00,,,0.00,WUHU216HW,2013-03-23 18:32:00,
2013-03-23 14:37:00,52.0,21.6,29.94,NNE,23,1.6,8.1,30,0.00,,,0.00,WUHU216HW,2013-03-23 18:37:00,
2013-03-23 14:42:00,52.7,21.3,29.94,NNW,338,4.3,8.1,29,0.00,,,0.00,WUHU216HW,2013-03-23 18:42:00,
2013-03-23 14:47:00,52.9,21.4,29.94,West,270,7.4,9.8,29,0.00,,,0.00,WUHU216HW,2013-03-23 18:47:00,
2013-03-23 14:52:00,52.9,19.5,29.93,WNW,293,4.7,9.8,27,0.00,,,0.00,WUHU216HW,2013-03-23 18:52:00,
2013-03-23 14:57:00,52.9,21.4,29.93,NNW,338,3.4,7.6,29,0.00,,,0.00,WUHU216HW,2013-03-23 18:57:00,
2013-03-23 15:02:00,53.1,20.7,29.93,WNW,293,5.1,8.3,28,0.00,,,0.00,WUHU216HW,2013-03-23 19:02:00,
2013-03-23 15:07:00,53.1,20.7,29.93,WSW,248,1.8,8.3,28,0.00,,,0.00,WUHU216HW,2013-03-23 19:07:00,
2013-03-23 15:12:00,53.3,19.9,29.93,West,270,6.0,8.5,27,0.00,,,0.00,WUHU216HW,2013-03-23 19:12:00,
2013-03-23 15:17:00,53.1,19.7,29.93,West,270,5.1,11.9,27,0.00,,,0.00,WUHU216HW,2013-03-23 19:17:00,
2013-03-23 15:22:00,53.5,21.0,29.93,West,270,5.1,11.9,28,0.00,,,0.00,WUHU216HW,2013-03-23 19:22:00,
2013-03-23 15:27:00,53.6,20.2,29.92,West,270,5.4,9.2,27,0.00,,,0.00,WUHU216HW,2013-03-23 19:27:00,
2013-03-23 15:32:00,53.6,20.2,29.92,WSW,248,4.3,9.2,27,0.00,,,0.00,WUHU216HW,2013-03-23 19:32:00,
2013-03-23 15:37:00,53.6,21.2,29.92,WSW,248,1.3,6.9,28,0.00,,,0.00,WUHU216HW,2013-03-23 19:37:00,
2013-03-23 15:42:00,54.2,20.6,29.92,NW,315,7.6,7.6,27,0.00,,,0.00,WUHU216HW,2013-03-23 19:42:00,
2013-03-23 15:47:00,54.4,20.8,29.92,North,0,5.4,8.3,27,0.00,,,0.00,WUHU216HW,2013-03-23 19:47:00,
2013-03-23 15:52:00,54.7,20.2,29.92,NE,45,0.9,8.3,26,0.00,,,0.00,WUHU216HW,2013-03-23 19:52:00,
2013-03-23 15:57:00,55.3,21.5,29.92,NE,45,3.6,5.4,27,0.00,,,0.00,WUHU216HW,2013-03-23 19:57:00,
2013-03-23 16:02:00,55.4,19.8,29.91,West,270,2.7,5.4,25,0.00,,,0.00,WUHU216HW,2013-03-23 20:02:00,
2013-03-23 16:07:00,55.4,19.8,29.92,North,0,1.8,6.7,25,0.00,,,0.00,WUHU216HW,2013-03-23 20:07:00,
2013-03-23 16:12:00,55.1,19.5,29.92,WNW,293,6.3,9.2,25,0.00,,,0.00,WUHU216HW,2013-03-23 20:12:00,
2013-03-23 16:18:00,55.1,21.3,29.91,WSW,248,1.8,9.2,27,0.00,,,0.00,WUHU216HW,2013-03-23 20:18:00,
2013-03-23 16:23:00,55.3,19.6,29.92,West,270,4.5,8.9,25,0.00,,,0.00,WUHU216HW,2013-03-23 20:23:00,
2013-03-23 16:28:00,55.3,19.6,29.92,WNW,293,4.3,10.5,25,0.00,,,0.00,WUHU216HW,2013-03-23 20:28:00,
2013-03-23 16:33:00,55.1,19.5,29.91,NW,315,4.7,10.5,25,0.00,,,0.00,WUHU216HW,2013-03-23 20:33:00,
2013-03-23 16:38:00,54.7,18.3,29.92,NW,315,4.0,9.8,24,0.00,,,0.00,WUHU216HW,2013-03-23 20:38:00,
2013-03-23 16:43:00,55.1,19.5,29.92,NW,315,2.5,9.8,25,0.00,,,0.00,WUHU216HW,2013-03-23 20:43:00,
2013-03-23 16:48:00,55.1,18.5,29.92,WNW,293,7.2,7.6,24,0.00,,,0.00,WUHU216HW,2013-03-23 20:48:00,
2013-03-23 16:53:00,54.5,18.1,29.92,WNW,293,2.9,7.6,24,0.00,,,0.00,WUHU216HW,2013-03-23 20:53:00,
2013-03-23 16:58:00,55.1,18.5,29.92,WNW,293,4.5,6.9,24,0.00,,,0.00,WUHU216HW,2013-03-23 20:58:00,
2013-03-23 17:03:00,55.1,18.5,29.92,SW,225,2.5,9.6,24,0.00,,,0.00,WUHU216HW,2013-03-23 21:03:00,
2013-03-23 17:08:00,55.1,19.5,29.92,North,0,1.8,9.6,25,0.00,,,0.00,WUHU216HW,2013-03-23 21:08:00,
2013-03-23 17:13:00,55.1,18.5,29.91,NW,315,4.3,7.6,24,0.00,,,0.00,WUHU216HW,2013-03-23 21:13:00,
2013-03-23 17:18:00,54.9,19.4,29.92,NNE,23,4.7,9.4,25,0.00,,,0.00,WUHU216HW,2013-03-23 21:18:00,
2013-03-23 17:23:00,54.9,18.4,29.92,North,0,7.2,9.4,24,0.00,,,0.00,WUHU216HW,2013-03-23 21:23:00,
2013-03-23 17:28:00,54.5,18.1,29.92,WNW,293,3.6,7.6,24,0.00,,,0.00,WUHU216HW,2013-03-23 21:28:00,
2013-03-23 17:33:00,54.4,18.9,29.92,WSW,248,1.6,9.6,25,0.00,,,0.00,WUHU216HW,2013-03-23 21:33:00,
2013-03-23 17:38:00,54.5,19.1,29.92,NNW,338,2.2,9.6,25,0.00,,,0.00,WUHU216HW,2013-03-23 21:38:00,
2013-03-23 17:43:00,54.5,18.1,29.92,SW,225,4.7,6.9,24,0.00,,,0.00,WUHU216HW,2013-03-23 21:43:00,
2013-03-23 17:48:00,54.7,19.2,29.92,WSW,248,3.1,6.5,25,0.00,,,0.00,WUHU216HW,2013-03-23 21:48:00,
2013-03-23 17:53:00,54.5,18.1,29.92,West,270,5.4,6.9,24,0.00,,,0.00,WUHU216HW,2013-03-23 21:53:00,
2013-03-23 17:58:00,54.5,19.1,29.93,ENE,68,1.3,7.4,25,0.00,,,0.00,WUHU216HW,2013-03-23 21:58:00,
2013-03-23 18:03:00,54.4,18.9,29.92,ENE,68,4.5,7.4,25,0.00,,,0.00,WUHU216HW,2013-03-23 22:03:00,
2013-03-23 18:08:00,54.4,18.9,29.92,ENE,68,2.5,7.4,25,0.00,,,0.00,WUHU216HW,2013-03-23 22:08:00,
2013-03-23 18:13:00,54.0,18.5,29.92,ENE,68,2.9,5.4,25,0.00,,,0.00,WUHU216HW,2013-03-23 22:13:00,
2013-03-23 18:18:00,53.6,20.2,29.93,WNW,293,2.0,6.3,27,0.00,,,0.00,WUHU216HW,2013-03-23 22:18:00,
2013-03-23 18:23:00,53.5,20.0,29.93,SSW,203,2.5,9.4,27,0.00,,,0.00,WUHU216HW,2013-03-23 22:23:00,
2013-03-23 18:28:00,52.9,19.5,29.93,NNE,23,2.7,9.4,27,0.00,,,0.00,WUHU216HW,2013-03-23 22:28:00,
2013-03-23 18:33:00,53.1,20.7,29.93,NNW,338,0.7,7.6,28,0.00,,,0.00,WUHU216HW,2013-03-23 22:33:00,
2013-03-23 18:38:00,52.9,19.5,29.93,WNW,293,1.3,6.9,27,0.00,,,0.00,WUHU216HW,2013-03-23 22:38:00,
2013-03-23 18:43:00,52.6,19.3,29.93,West,270,4.0,7.4,27,0.00,,,0.00,WUHU216HW,2013-03-23 22:43:00,
2013-03-23 18:48:00,52.0,19.7,29.93,West,270,1.8,7.4,28,0.00,,,0.00,WUHU216HW,2013-03-23 22:48:00,
2013-03-23 18:53:00,51.7,19.4,29.93,NE,45,2.5,6.9,28,0.00,,,0.00,WUHU216HW,2013-03-23 22:53:00,
2013-03-23 18:58:00,51.1,19.8,29.93,WSW,248,0.7,7.2,29,0.00,,,0.00,WUHU216HW,2013-03-23 22:58:00,
2013-03-23 19:03:00,50.8,19.5,29.93,North,0,2.5,7.2,29,0.00,,,0.00,WUHU216HW,2013-03-23 23:03:00,
2013-03-23 19:08:00,50.4,20.2,29.93,WSW,248,1.8,5.1,30,0.00,,,0.00,WUHU216HW,2013-03-23 23:08:00,
2013-03-23 19:13:00,50.0,19.8,29.93,NE,45,1.6,5.1,30,0.00,,,0.00,WUHU216HW,2013-03-23 23:13:00,
2013-03-23 19:18:00,49.3,19.9,29.94,North,0,2.9,4.3,31,0.00,,,0.00,WUHU216HW,2013-03-23 23:18:00,
2013-03-23 19:23:00,49.0,19.6,29.94,WSW,248,2.0,3.4,31,0.00,,,0.00,WUHU216HW,2013-03-23 23:23:00,
2013-03-23 19:28:00,48.6,20.0,29.94,NW,315,2.5,3.4,32,0.00,,,0.00,WUHU216HW,2013-03-23 23:28:00,
2013-03-23 19:33:00,48.2,19.7,29.94,North,0,2.5,3.6,32,0.00,,,0.00,WUHU216HW,2013-03-23 23:33:00,
2013-03-23 19:38:00,47.9,19.4,29.94,West,270,1.1,3.6,32,0.00,,,0.00,WUHU216HW,2013-03-23 23:38:00,
2013-03-23 19:43:00,47.5,19.7,29.94,WSW,248,0.7,3.6,33,0.00,,,0.00,WUHU216HW,2013-03-23 23:43:00,
2013-03-23 19:48:00,47.3,19.5,29.95,NNW,338,1.6,3.8,33,0.00,,,0.00,WUHU216HW,2013-03-23 23:48:00,
2013-03-23 19:53:00,47.2,19.4,29.95,NNE,23,1.1,3.8,33,0.00,,,0.00,WUHU216HW,2013-03-23 23:53:00,
2013-03-23 19:58:00,47.0,19.3,29.95,NNE,23,0.0,2.9,33,0.00,,,0.00,WUHU216HW,2013-03-23 23:58:00,
2013-03-23 20:03:00,46.6,18.9,29.96,NW,315,0.2,2.5,33,0.00,,,0.00,WUHU216HW,2013-03-24 00:03:00,
2013-03-23 20:08:00,46.3,19.3,29.95,NNE,23,0.7,2.5,34,0.00,,,0.00,WUHU216HW,2013-03-24 00:08:00,
2013-03-23 20:13:00,45.7,18.1,29.96,NNW,338,1.3,2.0,33,0.00,,,0.00,WUHU216HW,2013-03-24 00:13:00,
2013-03-23 20:18:00,45.5,19.3,29.95,NNW,338,0.9,2.5,35,0.00,,,0.00,WUHU216HW,2013-03-24 00:18:00,
2013-03-23 20:23:00,45.5,19.3,29.96,NNW,338,2.5,2.5,35,0.00,,,0.00,WUHU216HW,2013-03-24 00:23:00,
2013-03-23 20:28:00,45.4,19.1,29.96,West,270,0.0,2.5,35,0.00,,,0.00,WUHU216HW,2013-03-24 00:28:00,
2013-03-23 20:33:00,45.0,19.4,29.97,WNW,293,2.7,2.7,36,0.00,,,0.00,WUHU216HW,2013-03-24 00:33:00,
2013-03-23 20:38:00,44.6,19.1,29.97,NNE,23,0.4,2.7,36,0.00,,,0.00,WUHU216HW,2013-03-24 00:38:00,
2013-03-23 20:43:00,44.8,19.3,29.97,NNE,23,1.1,2.7,36,0.00,,,0.00,WUHU216HW,2013-03-24 00:43:00,
2013-03-23 20:48:00,44.6,19.1,29.97,NNW,338,1.1,1.8,36,0.00,,,0.00,WUHU216HW,2013-03-24 00:48:00,
2013-03-23 20:53:00,44.6,19.1,29.97,North,0,0.9,1.6,36,0.00,,,0.00,WUHU216HW,2013-03-24 00:53:00,
2013-03-23 20:58:00,44.5,19.0,29.97,NNE,23,0.9,1.6,36,0.00,,,0.00,WUHU216HW,2013-03-24 00:58:00,
2013-03-23 21:03:00,44.3,19.4,29.98,NNW,338,0.2,2.2,37,0.00,,,0.00,WUHU216HW,2013-03-24 01:03:00,
2013-03-23 21:08:00,43.9,19.8,29.97,ENE,68,0.4,2.2,38,0.00,,,0.00,WUHU216HW,2013-03-24 01:08:00,
2013-03-23 21:13:00,43.2,19.2,29.98,ENE,68,0.0,0.9,38,0.00,,,0.00,WUHU216HW,2013-03-24 01:13:00,
2013-03-23 21:18:00,42.5,19.2,29.98,ENE,68,0.4,0.7,39,0.00,,,0.00,WUHU216HW,2013-03-24 01:18:00,
2013-03-23 21:23:00,41.8,19.7,29.98,ESE,113,0.9,1.1,41,0.00,,,0.00,WUHU216HW,2013-03-24 01:23:00,
2013-03-23 21:28:00,41.0,18.5,29.98,NE,45,0.2,1.1,40,0.00,,,0.00,WUHU216HW,2013-03-24 01:28:00,
2013-03-23 21:33:00,40.7,18.7,29.98,NNW,338,0.0,0.9,41,0.00,,,0.00,WUHU216HW,2013-03-24 01:33:00,
2013-03-23 21:38:00,40.3,18.5,29.99,NNW,338,0.0,0.4,41,0.00,,,0.00,WUHU216HW,2013-03-24 01:38:00,
2013-03-23 21:43:00,40.0,18.6,29.98,NE,45,1.3,1.6,42,0.00,,,0.00,WUHU216HW,2013-03-24 01:43:00,
2013-03-23 21:48:00,39.4,18.6,29.98,NE,45,0.7,1.6,43,0.00,,,0.00,WUHU216HW,2013-03-24 01:48:00,
2013-03-23 21:53:00,40.1,19.3,29.98,NNW,338,0.9,2.2,43,0.00,,,0.00,WUHU216HW,2013-03-24 01:53:00,
2013-03-23 21:58:00,40.7,19.3,29.98,NNE,23,0.9,3.8,42,0.00,,,0.00,WUHU216HW,2013-03-24 01:58:00,
2013-03-23 22:03:00,41.0,19.6,29.99,North,0,1.6,3.8,42,0.00,,,0.00,WUHU216HW,2013-03-24 02:03:00,
2013-03-23 22:08:00,41.2,19.7,29.99,NNW,338,0.0,2.5,42,0.00,,,0.00,WUHU216HW,2013-03-24 02:08:00,
2013-03-23 22:13:00,41.0,19.6,29.99,North,0,0.2,1.6,42,0.00,,,0.00,WUHU216HW,2013-03-24 02:13:00,
2013-03-23 22:18:00,40.7,19.3,29.99,North,0,2.2,2.2,42,0.00,,,0.00,WUHU216HW,2013-03-24 02:18:00,
2013-03-23 22:23:00,40.9,19.5,29.99,NNE,23,1.8,2.2,42,0.00,,,0.00,WUHU216HW,2013-03-24 02:23:00,
2013-03-23 22:28:00,41.0,19.6,29.99,NNE,23,1.3,2.5,42,0.00,,,0.00,WUHU216HW,2013-03-24 02:28:00,
2013-03-23 22:33:00,41.0,20.1,30.00,NE,45,0.7,2.5,43,0.00,,,0.00,WUHU216HW,2013-03-24 02:33:00,
2013-03-23 22:38:00,40.5,20.7,30.00,ENE,68,0.4,2.0,45,0.00,,,0.00,WUHU216HW,2013-03-24 02:38:00,
2013-03-23 22:43:00,40.0,19.6,30.00,ENE,68,0.2,0.7,44,0.00,,,0.00,WUHU216HW,2013-03-24 02:43:00,
2013-03-23 22:48:00,39.2,19.0,30.00,West,270,0.0,0.4,44,0.00,,,0.00,WUHU216HW,2013-03-24 02:48:00,
2013-03-23 22:53:00,38.5,18.9,30.00,NE,45,1.1,1.1,45,0.00,,,0.00,WUHU216HW,2013-03-24 02:53:00,
2013-03-23 22:58:00,37.6,18.1,30.00,NE,45,0.0,1.1,45,0.00,,,0.00,WUHU216HW,2013-03-24 02:58:00,
2013-03-23 23:03:00,37.1,18.1,30.00,NE,45,0.9,1.1,46,0.00,,,0.00,WUHU216HW,2013-03-24 03:03:00,
2013-03-23 23:08:00,36.7,18.8,29.99,NE,45,0.4,2.0,48,0.00,,,0.00,WUHU216HW,2013-03-24 03:08:00,
2013-03-23 23:13:00,37.4,19.4,29.99,NE,45,2.0,4.0,48,0.00,,,0.00,WUHU216HW,2013-03-24 03:13:00,
2013-03-23 23:18:00,38.3,20.3,29.99,NNW,338,0.9,4.7,48,0.00,,,0.00,WUHU216HW,2013-03-24 03:18:00,
2013-03-23 23:23:00,38.7,20.1,30.00,ENE,68,2.7,4.7,47,0.00,,,0.00,WUHU216HW,2013-03-24 03:23:00,
2013-03-23 23:28:00,38.3,20.8,30.00,NE,45,3.8,5.4,49,0.00,,,0.00,WUHU216HW,2013-03-24 03:28:00,
2013-03-23 23:33:00,38.0,21.0,30.00,NE,45,2.7,5.4,50,0.00,,,0.00,WUHU216HW,2013-03-24 03:33:00,
2013-03-23 23:38:00,37.8,20.4,29.99,North,0,0.9,5.1,49,0.00,,,0.00,WUHU216HW,2013-03-24 03:38:00,
2013-03-23 23:43:00,37.8,20.9,29.99,NE,45,3.1,4.0,50,0.00,,,0.00,WUHU216HW,2013-03-24 03:43:00,
2013-03-23 23:48:00,37.4,21.0,29.99,NE,45,3.1,4.3,51,0.00,,,0.00,WUHU216HW,2013-03-24 03:48:00,
2013-03-23 23:53:00,37.1,20.6,29.99,NNW,338,0.4,4.3,51,0.00,,,0.00,WUHU216HW,2013-03-24 03:53:00,
2013-03-23 23:58:00,36.9,20.4,29.99,ENE,68,0.7,3.4,51,0.00,,,0.00,WUHU216HW,2013-03-24 03:58:00,